STARLINK-4123 (53539 NORAD) Tracking and Keplerian Element Data

This shows tracking and keplerian element data for the satellite.

Feedback or suggestion? Click here.




ElementValue
Catalog53539
NameSTARLINK-4123
Epoch Orbit1426
Epoch Day324.75118675
Epoch Year2022
RAAN83.2893
Inclination53.2195
Eccentricity0.0001953
Argument of Perigee44.9383
Mean Anonmoly315.1767
Mean Motion15.08841035
Decay Rate-5.94E-06
L11 53539U 22101N 22324.75118675 -.00000594 00000+0 -19217-4 0 9997
L22 53539 53.2195 83.2893 0001953 44.9383 315.1767 15.08841035 14262



Live tracking and technical data element details for STARLINK-4123 (NORAD 53539). STARLINK-4123 can be tracked NOW for your location showing map with azimuth and elevation plus other details from your city location.







IsCatalogInMostPopularTable: catalog: 53539, numindb: 3
Update: records affected: 1



GetName: 53539 STARLINK-4123

Hit Count: updated at: Thu, 08 Dec 2022 19:46:59 GMT